Погода в Великом Бычкове

Украина / Закарпатская область     47°58′18″N   24°00′02″E
темп.,
°C
ветер,
м/с
пор.,
м/с
влажн.,
%
обл.,
%
осадки,
мм/ч
давл.,
гПа
погр.,
м
20 сентября, пн
пн2000:00+6всв009527 0.0 101420
03:00+6вюв009626 0.0 101515
06:00+4ююв11975 0.0 101513
09:00+7в119266 0.0 1015155
12:00+11з127195 0.0 1015795
15:00+13зсз235896 0.1 10141445
18:00+12зсз245928 0.0 1015735
21:00+6з238256 0.0 101872
21 сентября, вт
вт2100:00+4з118851 0.0 102140
03:00+4з118283 0.0 102251
06:00+2с009034 0.0 102311
09:00+5сз01775 0.0 1024204
12:00+10зсз22556 0.0 10241088
15:00+12з24466 0.0 10231505
18:00+11з355624 0.0 1022431
21:00+5в117436 0.0 102411
22 сентября, ср
ср2200:00+3св118590 0.0 102517
03:00+2в118597 0.0 102512
06:00+3в1177100 0.0 102311
09:00+5ю1171100 0.0 1022112
12:00+5св1188100 0.4 1023413
15:00+6ссв1186100 0.6 1022470
18:00+5ссв1293100 0.3 1021254
21:00+5сз119489 0.4 102277
23 сентября, чт
чт2300:00+4з1196100 0.0 102252
03:00+3з119883 0.0 102244
06:00+3зсз009884 0.0 102171
09:00+4з119694 0.1 1021185
12:00+6ссз1290100 0.1 1021458
15:00+8ссз137693 0.1 1020808
18:00+8всв117762 0.1 1019258
21:00+7юв118536 0.1 102014
24 сентября, пт
пт2400:00+6юв2287100 0.0 101947
03:00+5юв1190100 0.0 101918
06:00+4юв228992 0.0 101724
09:00+7ююв1278100 0.0 1017133
12:00+13юз2756100 0.0 10141401
15:00+9всв2177100 0.1 101534
18:00+10вюв1179100 0.0 101448
21:00+8вюв118494 0.0 101512